Location: Lower Kingswood
(51.2667°N, 0.2167°W)
Time: 19:05:17
(UTC+00:00)

CBERS-1 - Pass Details

Date: 26 September 2023
Orbit: 768 x 775 km, 98.8° (Epoch: 08 December)

Event Time Altitude Azimuth Distance (km) Brightness Sun altitude
Rises 04:07:25 0° 15° (NNE) 3,257 7.8 -17.0°
Reaches altitude 10° 04:09:45 10° 17° (NNE) 2,327 7.0 -16.6°
Maximum altitude 04:14:53 83° 105° (ESE) 785 4.1 -15.9°
Drops below altitude 10° 04:20:00 10° 194° (SSW) 2,314 6.2 -15.1°
Enters shadow 04:21:47 - 195° (SSW) 3,027 6.8 -14.9°
